Weather History for Fort Lewis, WA

Change the Weather History Date:

Monday, February 3, 2014

  Actual Average Record
Temperature  
Mean Temperature 32 °F -  
Max Temperature 37 °F 47 °F 60 °F (2000)
Min Temperature 23 °F 33 °F 23 °F (2014)
Degree Days  
Heating Degree Days 33    
Moisture  
Dew Point 23 °F    
Average Humidity 66    
Maximum Humidity 100    
Minimum Humidity 39    
Precipitation  
Precipitation 0.00 in - - ()
Sea Level Pressure  
Sea Level Pressure 30.10 in    
Wind  
Wind Speed 4 mph (NE)    
Max Wind Speed 14 mph    
Max Gust Speed -    
Visibility 10 miles    
Events Rain , Snow    
Averages and records for this station are not official NWS values.
T = Trace of Precipitation, MM = Missing Value Source: NWS Daily Summary

Daily Weather History Graph

Daily Weather History Graph

Search for Another Location

Airport:

Trip Planner

Search our weather history database for the weather conditions in past years. The results will help you decide how hot, cold, wet, or windy it might be!

Date:

Astronomy

Feb. 03, 2014 Rise Set
Actual Time 7:32 AM PST 5:16 PM PST
Civil Twilight 7:00 AM PST 5:48 PM PST
Nautical Twilight 6:23 AM PST 6:25 PM PST
Astronomical Twilight 5:48 AM PST 7:00 PM PST
Moon 9:17 AM PST (2/3) 10:35 PM PST (2/3)
Length of Visible Light 10h 48m
Length of Day
9h 43m
Waxing Crescent, 20% of the Moon is Illuminated
Feb 3
Waxing Crescent
Feb 6
First Quarter
Feb 14
Full
Feb 22
Last Quarter
Mar 1
New

Hourly Weather History & Observations

Time (PST) Temp. Windchill Dew Point Humidity Pressure Visibility Wind Dir Wind Speed Gust Speed Precip Events Conditions
12:00 AM 37.4 °F - 30.2 °F 75% 30.01 in 10.0 mi East 1.2 mph - N/A   Light Drizzle
12:58 AM 34.3 °F 31.4 °F 33.3 °F 96% 30.03 in 10.0 mi SE 3.5 mph - N/A   Overcast
1:58 AM 33.8 °F - 33.3 °F 98% 30.04 in 10.0 mi SE 2.3 mph - N/A   Overcast
2:08 AM 32.0 °F - 32.0 °F 100% 30.02 in 10.0 mi SE 2.3 mph - N/A Snow Light Snow
2:09 AM 32.0 °F - 32.0 °F 100% 30.02 in 10.0 mi SE 2.3 mph - N/A   Overcast
2:20 AM 32.0 °F 28.7 °F 32.0 °F 100% 30.02 in 10.0 mi SSE 3.5 mph - N/A   Overcast
2:58 AM 34.0 °F - 33.3 °F 97% 30.05 in 10.0 mi Calm Calm - N/A   Mostly Cloudy
3:58 AM 36.3 °F 32.5 °F 24.1 °F 61% 30.05 in 10.0 mi NE 4.6 mph - N/A   Overcast
4:29 AM 35.6 °F 32.8 °F 24.8 °F 65% 30.03 in 10.0 mi NE 3.5 mph - N/A   Mostly Cloudy
4:58 AM 35.4 °F 29.7 °F 24.3 °F 64% 30.06 in 10.0 mi NNE 6.9 mph - N/A   Overcast
5:40 AM 35.6 °F 28.6 °F 23.0 °F 60% 30.05 in 10.0 mi North 9.2 mph - N/A   Light Drizzle
5:46 AM 35.6 °F 28.0 °F 23.0 °F 60% 30.05 in 10.0 mi North 10.4 mph - N/A   Overcast
5:58 AM 35.4 °F 28.4 °F 23.4 °F 62% 30.07 in 10.0 mi North 9.2 mph - 0.00 in   Overcast
6:33 AM 35.6 °F 29.2 °F 24.8 °F 65% 30.05 in 10.0 mi North 8.1 mph - N/A   Overcast
6:42 AM 35.6 °F 28.6 °F 24.8 °F 65% 30.06 in 10.0 mi North 9.2 mph - N/A   Mostly Cloudy
6:58 AM 34.9 °F 29.0 °F 24.4 °F 66% 30.08 in 10.0 mi North 6.9 mph - 0.00 in   Mostly Cloudy
7:09 AM 35.6 °F 29.2 °F 23.0 °F 60% 30.06 in 10.0 mi North 8.1 mph - N/A   Light Drizzle
7:20 AM 35.6 °F 30.7 °F 23.0 °F 60% 30.07 in 10.0 mi North 5.8 mph - N/A   Mostly Cloudy
7:58 AM 34.7 °F - 24.8 °F 67% 30.10 in 10.0 mi NE 2.3 mph - 0.00 in   Overcast
8:09 AM 33.8 °F - 26.6 °F 75% 30.09 in 10.0 mi ENE 2.3 mph - N/A   Overcast
8:20 AM 33.8 °F - 26.6 °F 75% 30.09 in 10.0 mi Calm Calm - N/A   Overcast
8:58 AM 34.0 °F - 26.2 °F 73% 30.12 in 10.0 mi NE 2.3 mph - 0.00 in   Mostly Cloudy
9:00 AM 33.8 °F - 26.6 °F 75% 30.10 in 10.0 mi NE 2.3 mph - N/A Rain Light Rain
9:15 AM 35.6 °F 31.7 °F 24.8 °F 65% 30.10 in 10.0 mi NE 4.6 mph - N/A   Scattered Clouds
9:58 AM 35.8 °F 30.9 °F 24.4 °F 63% 30.13 in 10.0 mi NE 5.8 mph - 0.00 in   Overcast
10:58 AM 36.9 °F 30.7 °F 23.4 °F 58% 30.14 in 10.0 mi NNE 8.1 mph - N/A   Mostly Cloudy
11:58 AM 36.9 °F 28.7 °F 19.8 °F 50% 30.14 in 10.0 mi NNE 12.7 mph - N/A   Overcast
12:50 PM 37.4 °F 32.1 °F 21.2 °F 52% 30.11 in 10.0 mi NE 6.9 mph - N/A Snow Light Snow
12:58 PM 36.9 °F 31.4 °F 19.8 °F 50% 30.13 in 10.0 mi NE 6.9 mph - N/A   Overcast
1:58 PM 37.6 °F 31.0 °F 15.6 °F 41% 30.12 in 10.0 mi NNE 9.2 mph - N/A   Overcast
2:58 PM 37.0 °F 28.5 °F 15.8 °F 42% 30.13 in 10.0 mi NNE 13.8 mph - N/A   Overcast
3:58 PM 36.7 °F 30.5 °F 15.1 °F 41% 30.15 in 10.0 mi NNE 8.1 mph - N/A   Overcast
4:58 PM 36.1 °F 29.9 °F 13.5 °F 39% 30.16 in 10.0 mi North 8.1 mph - N/A   Overcast
5:58 PM 34.9 °F 30.8 °F 13.5 °F 41% 30.17 in 10.0 mi NNW 4.6 mph - N/A   Mostly Cloudy
6:58 PM 33.4 °F 29.1 °F 12.7 °F 42% 30.17 in 10.0 mi North 4.6 mph - N/A   Clear
7:58 PM 32.7 °F 28.3 °F 13.5 °F 45% 30.18 in 10.0 mi North 4.6 mph - N/A   Partly Cloudy
8:58 PM 30.7 °F 27.3 °F 17.4 °F 58% 30.19 in 10.0 mi North 3.5 mph - N/A   Overcast
9:23 PM 28.4 °F - 19.4 °F 69% 30.17 in 10.0 mi NNE 2.3 mph - N/A   Mostly Cloudy
9:58 PM 28.4 °F - 21.9 °F 77% 30.19 in 10.0 mi ENE 2.3 mph - N/A   Overcast
10:58 PM 27.5 °F - 21.4 °F 78% 30.19 in 10.0 mi SE 2.3 mph - N/A   Mostly Cloudy
11:58 PM 23.7 °F 19.3 °F 20.7 °F 88% 30.20 in 10.0 mi SSE 3.5 mph - N/A   Mostly Cloudy